Theta_e
351 351 350 351 352 351 352 353 353 353 354 355 355 355 355 355 355 356 356 356 357 358 358 357 357 356 356 356 356 355 355 356 356 356 357 357 357 356 356 355 353 353
351 350 350 351 351 350 352 353 354 354 354 355 355 354 355 356 356 355 355 356 357 357 356 357 357 357 356 356 356 356 356 356 356 355 356 356 357 356 356 356 355 354
351 352 350 351 351 350 351 352 354 354 355 356 356 355 355 355 356 355 354 355 356 356 356 357 357 358 356 356 355 355 356 357 355 354 356 355 355 356 356 357 356 355
350 351 351 351 352 351 350 351 352 353 355 357 357 356 355 355 356 357 355 355 355 355 356 357 358 357 356 355 356 355 355 355 354 354 355 355 355 357 357 357 357 355
350 353 352 352 353 352 351 351 352 353 354 355 357 357 356 355 356 357 356 355 354 356 357 357 358 358 356 355 357 358 357 355 354 354 354 354 356 357 356 356 356 355
352 353 354 354 355 354 353 353 354 355 355 356 356 356 357 356 356 356 356 354 353 355 356 357 358 358 356 355 356 359 358 355 353 354 355 354 355 354 355 357 356 356
355 355 356 355 356 355 355 356 357 357 356 356 356 355 356 356 354 356 356 355 354 355 357 358 358 359 357 357 357 357 356 353 353 355 356 355 354 353 355 358 357 357
356 357 356 357 357 356 357 358 357 357 357 356 356 356 355 355 355 356 356 356 355 356 358 357 358 358 358 358 359 358 357 355 355 357 357 356 354 354 355 358 359 358
357 357 357 357 357 357 357 358 356 356 357 356 356 356 356 356 355 356 357 356 356 356 357 357 358 359 358 358 358 358 359 357 356 356 356 354 354 354 354 356 358 359
358 357 358 357 357 357 357 357 356 355 356 357 356 356 356 356 356 356 355 356 355 356 357 356 357 357 358 358 358 358 359 358 357 358 356 355 355 354 354 355 357 358
359 358 358 357 357 357 357 356 356 355 356 356 356 355 355 355 355 355 355 354 354 355 356 356 356 356 356 358 357 357 358 358 358 359 358 358 357 356 355 356 357 357
359 358 357 357 357 357 357 356 355 355 354 354 355 355 355 355 355 355 354 353 355 355 356 356 356 355 356 357 357 357 357 357 358 359 359 359 359 358 357 357 358 358
359 359 358 357 357 356 356 356 355 355 354 353 353 354 355 355 354 354 354 355 355 354 354 354 354 353 353 353 354 356 356 357 359 358 358 358 359 359 357 356 358 357
357 358 358 357 356 355 355 355 355 355 354 353 353 354 354 354 353 353 355 356 355 353 353 354 354 352 352 351 352 352 353 357 358 358 357 357 358 358 357 357 357 357
356 356 356 356 356 356 355 354 355 354 354 354 352 353 354 354 354 353 354 354 354 354 354 354 354 351 350 350 350 350 352 355 357 358 358 357 357 357 357 357 357 357
353 353 353 354 355 355 355 355 354 353 352 352 351 352 353 354 354 354 353 353 353 354 354 354 354 352 352 351 352 351 351 353 355 356 358 358 356 355 355 355 355 355
351 350 350 352 352 353 354 355 354 353 352 351 350 351 352 353 354 353 352 351 352 353 354 354 353 353 353 352 352 353 353 354 354 355 357 357 356 354 355 354 354 354
351 350 350 351 351 351 351 353 355 354 354 353 352 351 352 353 353 353 352 352 352 351 352 353 352 352 352 352 352 352 354 356 354 353 355 356 356 355 355 355 354 352
352 351 352 352 352 353 353 354 355 355 355 354 354 353 352 352 351 351 351 351 351 351 350 350 350 350 351 351 351 350 350 353 354 354 355 356 355 355 354 353 351 349
353 352 353 354 354 354 354 355 356 356 356 355 356 355 354 352 351 351 350 350 349 349 349 349 348 349 349 351 351 349 348 349 350 353 355 355 354 353 353 352 349 348
353 353 354 354 353 353 356 357 356 355 354 355 355 355 355 354 351 350 350 349 349 349 349 349 349 348 349 350 350 350 349 348 348 350 353 355 354 353 352 351 349 347
352 352 351 350 349 350 353 355 354 351 352 353 354 354 354 354 352 350 350 350 350 351 351 350 351 350 351 351 350 349 349 348 348 346 347 351 352 351 351 350 349 348
347 348 347 347 347 348 350 352 351 349 350 352 352 351 351 351 352 351 351 351 350 351 351 351 350 351 351 350 350 348 349 348 347 346 346 349 351 351 351 351 349 349
342 343 343 343 344 346 348 349 349 349 350 350 348 348 349 349 350 351 351 351 351 351 351 351 350 350 350 349 348 349 349 348 348 350 351 352 352 352 352 351 351 351
338 338 339 339 340 341 343 346 347 348 348 347 345 345 346 346 347 348 349 348 348 349 350 351 350 349 349 348 349 350 350 350 350 353 355 355 354 354 353 353 352 352
336 336 337 337 337 338 339 341 343 344 345 345 345 344 344 344 345 345 346 345 345 347 348 348 348 347 346 348 348 349 349 350 352 353 355 355 355 354 354 354 353 352
Wind_Speed
22 22 22 22 22 20 20 20 19 21 22 20 20 20 18 16 15 15 15 14 14 13 12 12 12 11 9 9 10 10 10 10 9 7 6 5 4 4 3 4 4 4
23 22 21 22 23 23 21 20 20 21 21 20 19 19 18 16 15 16 15 14 15 15 14 14 13 13 11 10 11 11 11 11 9 8 8 7 6 5 4 4 5 5
24 22 21 22 24 24 22 21 21 20 21 20 19 19 19 18 16 16 16 16 17 16 15 15 15 14 13 12 13 12 12 11 10 10 9 8 7 7 6 5 4 4
26 23 23 23 23 23 23 22 22 21 21 21 20 19 19 19 17 17 18 18 18 18 17 16 16 15 14 14 14 13 12 11 10 10 11 10 9 8 7 6 5 4
27 25 23 23 22 23 23 23 22 21 21 22 21 19 18 19 19 18 18 18 19 18 17 17 16 15 14 15 15 13 12 11 10 11 11 11 10 9 8 7 6 5
28 26 25 24 22 22 22 22 21 21 20 20 20 19 18 19 19 19 19 18 19 19 18 17 16 14 14 14 15 15 13 12 11 11 11 10 10 10 9 8 7 6
27 26 25 25 23 22 22 22 21 21 21 20 19 19 19 18 19 20 19 19 19 19 18 18 17 16 14 14 15 15 14 12 11 11 11 10 9 10 10 9 7 7
27 27 26 25 24 22 23 23 23 22 21 21 20 20 19 19 20 20 21 21 20 19 19 18 18 17 16 16 16 15 14 13 13 13 12 10 10 10 11 10 9 8
26 26 26 26 25 24 24 24 25 24 22 22 21 20 20 20 20 20 21 21 21 20 20 20 19 19 18 18 18 17 16 16 15 14 13 12 11 11 11 11 11 10
27 27 26 26 26 26 26 25 24 24 23 23 22 21 21 21 21 21 22 22 23 22 22 21 20 20 19 19 19 18 18 17 16 15 14 13 12 11 11 12 12 11
26 27 27 28 27 27 26 24 24 24 24 24 24 23 23 22 21 21 22 23 24 24 24 22 22 22 22 21 20 18 18 18 17 16 14 13 13 12 12 12 12 12
28 28 28 28 28 28 26 24 23 24 24 25 25 24 24 23 22 22 23 25 25 24 22 19 18 18 20 21 21 20 19 18 17 17 15 14 14 13 12 12 12 12
29 29 29 29 28 28 27 26 24 24 25 25 25 25 26 25 24 24 24 25 23 20 17 15 13 13 13 15 17 19 19 19 18 17 16 16 16 15 14 13 13 12
32 31 29 28 27 28 27 27 26 24 25 26 26 27 27 26 26 25 24 24 23 20 20 21 19 18 17 15 16 17 18 19 19 18 19 18 17 17 16 16 15 15
25 30 31 29 27 27 28 27 27 26 27 28 27 27 28 28 27 27 24 22 22 20 21 22 22 21 20 18 18 18 18 21 21 19 19 19 18 17 16 15 15 15
10 13 18 22 24 25 27 26 25 23 23 24 24 26 29 29 28 27 23 21 20 19 20 22 22 21 19 18 18 19 18 20 21 20 19 18 17 17 17 15 14 15
11 6 4 3 2 6 11 15 17 15 14 16 17 19 24 27 27 26 23 22 21 20 20 22 22 20 18 17 17 19 19 18 21 23 21 18 17 16 15 14 14 14
13 10 7 6 8 9 8 4 4 8 9 10 11 14 17 20 22 23 23 22 22 22 21 21 20 18 17 16 16 18 20 21 24 26 23 20 18 16 15 15 14 15
8 7 13 14 9 6 7 8 5 5 6 7 8 11 14 16 17 19 20 20 20 21 21 20 19 18 17 17 17 16 18 21 25 26 24 21 19 18 17 17 15 14
7 7 14 18 14 10 10 10 9 6 4 5 7 8 11 13 14 15 16 17 18 18 18 18 18 17 17 18 18 16 17 19 22 23 23 23 22 20 19 18 15 13
8 6 9 11 9 8 13 16 14 6 1 3 6 9 10 11 12 14 14 14 14 15 17 17 17 17 17 18 18 17 17 16 14 14 17 20 21 21 20 18 16 15
6 4 3 4 3 4 12 19 17 10 7 9 9 9 9 9 9 11 13 13 13 14 15 16 16 17 18 18 17 16 15 13 10 10 14 16 17 18 17 17 15 14
4 3 2 4 5 4 10 17 17 12 13 15 11 7 8 8 8 10 11 12 14 13 13 14 14 15 16 16 15 13 13 14 13 14 16 17 17 17 16 14 13 12
2 2 2 4 7 6 9 14 13 8 9 11 9 7 8 8 9 10 9 9 11 11 11 11 12 12 13 13 12 10 9 11 14 16 18 19 18 16 14 12 11 11
10 8 8 8 8 7 6 8 10 8 7 7 5 5 8 8 7 8 8 7 7 7 8 9 9 10 9 10 10 8 7 10 14 17 18 17 16 14 12 11 11 10
10 10 9 9 9 7 5 4 5 5 5 5 3 4 7 7 7 8 9 8 7 6 7 7 7 7 7 7 8 8 7 9 13 14 14 14 13 12 12 12 11 10
Wind_Direction
199 203 206 208 209 209 208 208 209 207 208 210 211 214 216 219 221 222 220 215 212 215 222 228 223 218 221 219 219 221 221 227 233 231 232 234 239 244 255 291 294 271
201 206 210 212 211 211 210 210 209 210 212 213 215 218 218 221 224 224 222 219 220 220 221 224 223 220 224 222 218 217 216 225 229 228 230 229 234 245 249 276 293 277
203 207 211 213 212 212 212 212 213 215 216 216 219 221 221 222 224 222 221 223 225 225 223 224 227 228 229 225 221 220 220 224 227 227 229 227 232 240 245 261 278 273
206 209 213 213 212 214 214 214 217 220 219 219 222 224 224 224 224 223 224 226 227 226 225 226 230 232 231 225 222 222 225 224 220 223 227 226 231 234 241 252 255 261
208 209 213 214 214 214 214 216 220 223 221 221 222 224 225 224 224 226 227 226 226 226 226 228 230 232 229 225 223 224 228 229 222 222 227 227 229 232 237 242 243 256
210 210 212 214 215 214 215 219 222 222 220 219 221 222 224 225 226 226 225 225 224 225 227 230 231 231 228 225 227 228 231 235 229 227 234 234 232 234 236 234 237 252
211 212 212 214 215 215 217 222 224 223 221 221 223 224 224 226 225 224 225 225 223 223 225 229 231 232 230 228 231 231 232 236 231 228 239 244 242 241 235 229 235 251
210 212 213 214 215 216 219 222 224 224 224 223 225 225 224 224 223 224 227 225 223 224 226 229 231 234 233 232 232 232 232 234 231 230 238 243 244 245 238 231 239 253
210 212 213 214 215 218 221 224 225 225 225 224 224 226 225 222 222 224 225 224 224 227 229 230 232 234 236 235 233 234 235 235 233 234 238 240 241 242 236 231 235 247
211 211 212 214 216 218 223 227 226 226 226 224 224 227 226 224 224 225 226 225 225 227 231 232 231 232 236 235 233 235 237 238 237 238 241 239 239 240 234 229 232 240
211 212 212 214 216 219 225 228 227 226 226 227 229 230 228 226 226 228 229 227 225 226 229 231 232 233 236 235 234 236 239 241 242 242 243 242 241 245 241 233 236 243
211 213 213 214 216 218 223 227 229 230 228 227 230 231 228 226 228 231 231 228 225 224 226 231 237 241 243 241 236 235 237 242 246 246 246 247 249 251 249 242 241 248
211 213 212 213 215 218 222 227 230 233 232 229 229 230 229 228 230 232 231 227 224 225 227 233 240 246 255 259 252 246 242 241 243 246 247 249 251 251 251 249 247 248
210 212 212 213 215 217 219 223 226 229 233 234 232 230 229 227 226 227 227 225 224 229 234 234 233 233 238 248 255 257 257 250 243 242 246 248 249 251 254 255 253 253
214 212 212 213 217 219 219 222 225 228 233 237 237 234 229 225 225 225 225 226 225 228 234 233 231 230 232 237 239 239 246 251 248 244 245 247 248 250 253 252 251 253
231 221 216 210 209 213 216 221 226 229 230 233 235 233 227 223 224 223 224 227 227 225 227 227 226 228 233 240 239 233 233 241 247 247 243 245 249 248 247 247 245 249
214 235 297 308 202 204 207 211 214 214 213 219 224 225 222 220 221 221 222 225 226 224 225 226 226 229 234 235 232 231 231 234 244 246 240 240 245 241 238 243 246 248
202 209 251 316 358 3 2 356 208 197 199 208 210 209 210 213 215 217 219 222 225 227 229 228 226 229 233 228 224 230 233 234 240 242 238 240 240 232 232 241 245 246
197 201 228 236 244 276 309 321 302 245 220 214 204 199 202 206 209 213 216 220 224 228 228 224 222 224 227 223 226 235 234 230 235 237 236 239 235 229 236 242 241 246
197 190 216 225 226 228 239 252 260 258 242 227 217 209 206 203 202 203 206 210 214 216 217 218 220 225 226 224 230 239 234 229 233 234 233 231 228 231 241 242 236 240
197 190 203 212 218 225 231 238 242 246 266 247 235 227 220 210 199 193 191 194 199 201 206 212 217 222 225 228 235 241 240 237 238 239 235 229 226 233 239 234 229 232
194 184 170 155 146 207 234 242 247 248 246 250 249 234 219 205 192 188 188 193 199 201 206 210 214 220 227 236 242 243 242 240 237 249 256 242 226 223 222 218 219 223
225 220 183 144 139 180 241 252 257 257 248 245 240 214 192 185 187 194 196 200 205 207 209 211 215 220 227 235 241 244 248 247 238 240 248 239 219 209 209 210 213 216
113 123 124 136 151 179 233 249 248 240 233 230 213 193 205 212 211 208 202 201 205 206 207 216 223 226 227 231 235 238 243 240 232 227 226 220 210 206 207 209 211 214
84 89 93 97 115 146 197 234 233 221 224 230 218 224 239 239 230 227 226 225 222 209 206 221 233 235 237 239 240 240 225 211 212 212 210 207 204 203 204 208 213 217
71 76 81 83 91 109 138 190 215 217 228 239 248 259 251 234 220 219 220 221 223 211 208 226 242 248 254 255 252 253 241 219 214 212 206 205 209 212 214 216 218 221